TimeAEST,TemperatureF,Dew PointF,Humidity,Sea Level PressureIn,VisibilityMPH,Wind Direction,Wind SpeedMPH,Gust SpeedMPH,PrecipitationIn,Events,Conditions,WindDirDegrees,DateUTC
12:00 AM,69,68,96,30.06,,ENE,1.2,,,,,70,2013-08-15 14:00:00
12:00 AM,68.0,68.0,100,30.06,-9999.0,ENE,1.2,-,N/A,,Unknown,70,2013-08-15 14:00:00
12:30 AM,68.0,68.0,100,30.04,-9999.0,South,3.5,-,N/A,,Unknown,170,2013-08-15 14:30:00
1:00 AM,68.0,68.0,100,30.04,-9999.0,South,3.5,-,N/A,,Unknown,180,2013-08-15 15:00:00
1:30 AM,68.0,68.0,100,30.04,-9999.0,Calm,Calm,-,N/A,,Unknown,0,2013-08-15 15:30:00
2:00 AM,68.0,68.0,100,30.04,-9999.0,South,3.5,-,N/A,,Unknown,170,2013-08-15 16:00:00
2:30 AM,68.0,68.0,100,30.04,-9999.0,Calm,Calm,-,N/A,,Unknown,0,2013-08-15 16:30:00
3:00 AM,68.0,68.0,100,30.04,-9999.0,NW,1.2,-,N/A,,Unknown,320,2013-08-15 17:00:00
3:30 AM,68.0,68.0,100,30.04,-9999.0,West,1.2,-,N/A,,Unknown,280,2013-08-15 17:30:00
4:00 AM,68.0,68.0,100,30.04,-9999.0,South,8.1,-,N/A,,Unknown,170,2013-08-15 18:00:00
4:30 AM,-9999,-9999,N/A,30.04,-9999.0,South,9.2,-,N/A,,Unknown,170,2013-08-15 18:30:00
5:00 AM,68.0,68.0,100,30.04,-9999.0,South,10.4,-,N/A,,Unknown,170,2013-08-15 19:00:00
5:30 AM,68.0,68.0,100,30.06,-9999.0,SSE,11.5,-,N/A,,Unknown,150,2013-08-15 19:30:00
6:00 AM,68.0,68.0,100,30.06,-9999.0,SSE,11.5,-,N/A,,Unknown,150,2013-08-15 20:00:00
6:30 AM,68.0,68.0,100,30.06,-9999.0,SE,9.2,-,N/A,,Unknown,130,2013-08-15 20:30:00
7:00 AM,68.0,68.0,100,30.09,-9999.0,SE,11.5,-,N/A,,Unknown,140,2013-08-15 21:00:00
7:30 AM,69.8,69.8,100,30.09,-9999.0,SE,12.7,-,N/A,,Unknown,130,2013-08-15 21:30:00
8:00 AM,69.8,68.0,94,30.09,-9999.0,SE,12.7,-,N/A,,Unknown,130,2013-08-15 22:00:00
8:30 AM,71.6,69.8,94,30.09,-9999.0,SE,12.7,-,N/A,,Unknown,140,2013-08-15 22:30:00
9:00 AM,69.8,68.0,94,30.12,-9999.0,SSE,12.7,-,N/A,,Unknown,150,2013-08-15 23:00:00
9:30 AM,69.8,68.0,94,30.12,-9999.0,SSE,13.8,-,N/A,,Unknown,150,2013-08-15 23:30:00
10:00 AM,69.8,68.0,94,30.12,-9999.0,SSE,12.7,-,N/A,,Unknown,160,2013-08-16 00:00:00
10:30 AM,71.6,69.8,94,30.12,-9999.0,SSE,15.0,-,N/A,,Unknown,150,2013-08-16 00:30:00
11:00 AM,71.6,68.0,88,30.12,-9999.0,SSE,13.8,-,N/A,,Unknown,160,2013-08-16 01:00:00
11:30 AM,73.4,69.8,88,30.09,-9999.0,SSE,15.0,-,N/A,,Unknown,150,2013-08-16 01:30:00
12:00 PM,71.6,69.8,94,30.09,-9999.0,SSE,13.8,-,N/A,,Unknown,160,2013-08-16 02:00:00
12:30 PM,71.6,68.0,88,30.06,-9999.0,SSE,13.8,-,N/A,,Unknown,150,2013-08-16 02:30:00
1:00 PM,71.6,68.0,88,30.06,-9999.0,SSE,15.0,-,N/A,,Unknown,150,2013-08-16 03:00:00
1:30 PM,73.4,69.8,88,30.04,-9999.0,SSE,13.8,-,N/A,,Unknown,150,2013-08-16 03:30:00
2:00 PM,71.6,68.0,88,30.04,-9999.0,SSE,15.0,-,N/A,,Unknown,150,2013-08-16 04:00:00
2:30 PM,71.6,68.0,88,30.04,-9999.0,SE,15.0,-,N/A,,Unknown,140,2013-08-16 04:30:00
3:00 PM,72,68,85,30.04,,SSE,15.0,,,,,150,2013-08-16 05:00:00
3:00 PM,73.4,68.0,83,30.04,-9999.0,SSE,15.0,-,N/A,,Unknown,150,2013-08-16 05:00:00
3:30 PM,73.4,68.0,83,30.01,-9999.0,ESE,12.7,-,N/A,,Unknown,120,2013-08-16 05:30:00
4:00 PM,73.4,68.0,83,30.01,-9999.0,ESE,13.8,-,N/A,,Unknown,120,2013-08-16 06:00:00
4:30 PM,71.6,68.0,88,30.01,-9999.0,ESE,12.7,-,N/A,,Unknown,120,2013-08-16 06:30:00
5:00 PM,71.6,68.0,88,30.01,-9999.0,ESE,13.8,-,N/A,,Unknown,120,2013-08-16 07:00:00
5:30 PM,69.8,68.0,94,30.04,-9999.0,SE,13.8,-,N/A,,Unknown,130,2013-08-16 07:30:00
6:00 PM,69.8,68.0,94,30.04,-9999.0,ESE,13.8,-,N/A,,Unknown,120,2013-08-16 08:00:00
6:30 PM,71.6,68.0,88,30.04,-9999.0,ESE,16.1,-,N/A,,Unknown,110,2013-08-16 08:30:00
7:00 PM,71.6,68.0,88,30.04,-9999.0,ESE,13.8,-,N/A,,Unknown,120,2013-08-16 09:00:00
7:30 PM,71.6,68.0,88,30.06,-9999.0,ESE,12.7,-,N/A,,Unknown,110,2013-08-16 09:30:00
8:00 PM,71.6,68.0,88,30.06,-9999.0,ESE,16.1,-,N/A,,Unknown,110,2013-08-16 10:00:00
8:30 PM,71.6,68.0,88,30.06,-9999.0,ESE,15.0,-,N/A,,Unknown,110,2013-08-16 10:30:00
9:00 PM,71,68,86,30.08,,ESE,15.0,,,,,110,2013-08-16 11:00:00
9:00 PM,71.6,68.0,88,30.06,-9999.0,ESE,15.0,-,N/A,,Unknown,110,2013-08-16 11:00:00
9:30 PM,71.6,68.0,88,30.06,-9999.0,ESE,13.8,-,N/A,,Unknown,110,2013-08-16 11:30:00
10:00 PM,71.6,68.0,88,30.06,-9999.0,ESE,13.8,-,N/A,,Unknown,120,2013-08-16 12:00:00
10:30 PM,71.6,68.0,88,30.06,-9999.0,ESE,12.7,-,N/A,,Unknown,110,2013-08-16 12:30:00
11:00 PM,71.6,69.8,94,30.06,-9999.0,ESE,12.7,-,N/A,,Unknown,110,2013-08-16 13:00:00
11:30 PM,71.6,68.0,88,30.06,-9999.0,East,16.1,-,N/A,,Unknown,100,2013-08-16 13:30:00